[[{"header":{"parameterUnit":"m.s-1","parameterCategory":1,"la1":30.2991,"la2":30.254,"lo1":-89.0895,"lo2":-89.0444,"dy":0.0017,"dx":0.0017,"nx":28,"ny":28,"refTime":"2024-12-07T09:00:00:Z","depth":0,"parameterNumber":2,"parameterNumberName":"U-component_of_WINDS"},"data":[0,0,0,0,0,0,0,0,0,0,0,0,0,0,0,0,0,0,0,0,0,0,0,0,0,0,0,0,0,0,0,0,0,0,0,0,0,0,0,0,0,0,0,0,0,0,0,0,0,0,0,0,0,0,0,0,0,0,-0.0255,-0.0255,0,-0.0296,-0.0296,-0.0297,-0.035,-0.0351,-0.0352,-0.0352,-0.0395,-0.0395,-0.0395,0,0,0,0,0,0,0,0,0,0,0,0,0,-0.0224,-0.0224,-0.0255,-0.0255,-0.0256,-0.0296,-0.0296,-0.0297,-0.035,-0.0351,-0.0352,-0.0353,-0.0395,-0.0395,-0.0395,0,0,0,0,0,0,0,0,0,0,0,0,0,-0.0248,-0.0224,-0.0255,-0.0287,-0.0291,-0.0295,-0.0296,-0.0297,-0.035,-0.0351,-0.0352,-0.0353,-0.0394,-0.0395,-0.0395,-0.0372,0,0,-0.0397,-0.0397,0,0,0,0,0,0,0,0,-0.0247,-0.0249,-0.0282,-0.0285,-0.0289,-0.0319,-0.0301,-0.0322,-0.0349,-0.0327,-0.0352,-0.0354,-0.0369,-0.0371,-0.0376,-0.0374,-0.0376,-0.0397,-0.0397,-0.0397,-0.0397,0,0,0,0,0,0,0,-0.0245,-0.0248,-0.0271,-0.0282,-0.0286,-0.03,-0.0305,-0.0305,-0.034,-0.0329,-0.0333,-0.0337,-0.0371,-0.0375,-0.0377,-0.0376,-0.0397,-0.0397,-0.0398,-0.0398,-0.0357,-0.0356,0,0,0,0,0,0,-0.0238,-0.0246,-0.027,-0.0272,-0.027,-0.0299,-0.0305,-0.0308,-0.034,-0.0346,-0.0336,-0.0339,-0.0374,-0.0377,-0.0379,-0.0353,-0.0397,-0.0398,-0.0398,-0.0358,-0.0357,-0.0355,0,0,0,0,0,0,-0.0237,-0.024,-0.0268,-0.026,-0.0265,-0.0298,-0.0302,-0.0308,-0.0313,-0.0345,-0.0352,-0.0334,-0.0375,-0.0378,-0.0373,-0.0356,-0.0398,-0.0398,-0.036,-0.0358,-0.0356,-0.0302,0,0,0,0,0,0,-0.0236,-0.0239,-0.0231,-0.026,-0.0265,-0.0261,-0.0301,-0.0308,-0.0313,-0.0318,-0.0346,-0.0351,-0.0376,-0.0372,-0.0374,-0.0357,-0.0399,-0.0362,-0.0359,-0.0357,-0.0305,-0.0298,-0.0292,0,0,0,0,0,-0.0235,-0.0214,-0.023,-0.0233,-0.0255,-0.026,-0.0263,-0.0292,-0.0312,-0.0303,-0.0324,-0.035,-0.0357,-0.0371,-0.0373,-0.0357,-0.0363,-0.036,-0.0357,-0.0308,-0.03,-0.0292,0,0,0,0,0,0,-0.0183,-0.0219,-0.0236,-0.0224,-0.0239,-0.0269,-0.026,-0.0282,-0.0292,-0.0296,-0.0332,-0.0338,-0.0328,-0.0342,-0.0357,-0.0335,-0.0364,-0.0361,-0.0327,-0.0319,-0.0312,-0.0309,-0.0399,0,0,0,0,0,-0.0169,-0.0171,-0.0202,-0.0188,-0.0195,-0.0226,-0.0229,-0.025,-0.0267,-0.0273,-0.0294,-0.0309,-0.0314,-0.0317,-0.0324,-0.0308,-0.0314,-0.0297,-0.0291,-0.0285,-0.0282,-0.0274,-0.0267,-0.0345,-0.0345,-0.0345,0,0,-0.0143,-0.0162,-0.0161,-0.0178,-0.0192,-0.0192,-0.023,-0.0229,-0.023,-0.0273,-0.0269,-0.0285,-0.0304,-0.0293,-0.0289,-0.0304,-0.0262,-0.0281,-0.0276,-0.0277,-0.027,-0.0262,-0.0256,-0.0343,-0.0343,-0.0344,0,0,-0.0094,-0.0109,-0.0099,-0.0112,-0.0132,-0.0153,-0.015,-0.0177,-0.0189,-0.0185,-0.0218,-0.0219,-0.0228,-0.024,-0.0248,-0.0203,-0.0227,-0.0204,-0.0169,-0.0161,-0.0155,-0.0149,-0.0133,-0.0127,-0.0201,-0.0201,-0.0201,0,-0.0058,-0.006,-0.0091,-0.0088,-0.0094,-0.0133,-0.0123,-0.0134,-0.0155,-0.0159,-0.0176,-0.0187,-0.0203,-0.0195,-0.0184,-0.0189,-0.0187,-0.0201,-0.0153,-0.0148,-0.0144,-0.0128,-0.0122,-0.0198,-0.0198,-0.0199,-0.0199,0,-0.0015,-0.0015,-0.0005,-0.0024,-0.0029,-0.0023,-0.0053,-0.0055,-0.0075,-0.0094,-0.009,-0.011,-0.0121,-0.0121,-0.0141,-0.0116,-0.0124,-0.0146,-0.0176,-0.0133,-0.0119,-0.0113,-0.0194,-0.0195,-0.0196,-0.0197,0,0,0.0066,0.003,0.0034,0.0025,0.0,-0.0001,0.0004,-0.0007,-0.0007,-0.002,-0.0017,-0.0023,-0.0044,-0.0052,-0.0074,-0.0067,-0.0029,-0.009,-0.0091,-0.0077,-0.0001,0.0016,0.0023,-0.0045,-0.0044,-0.0044,0.0,0,0.011,0.0117,0.0089,0.0103,0.0102,0.0066,0.007,0.0056,0.0038,0.0035,0.0016,0.0012,-0.0015,-0.002,-0.0014,-0.0035,-0.0014,-0.0038,-0.0042,-0.0042,-0.0036,0.003,0.0048,0.009,0.0006,0.0006,0.0007,0,0.0162,0.0152,0.0166,0.0142,0.014,0.0145,0.0133,0.013,0.0113,0.01,0.0091,0.0066,0.0069,0.0041,0.0046,0.003,0.0027,0.0016,0.0017,0.0016,-0.0015,0.0031,0.0103,0.011,0.0015,0.0015,0.0014,0,0.022,0.021,0.0217,0.0211,0.0182,0.0186,0.0174,0.0156,0.0151,0.0141,0.0138,0.0128,0.0122,0.0115,0.0088,0.007,0.0096,0.0065,0.0085,0.0086,0.0092,0.0092,0.0165,0.009,0.009,0.009,0.009,0,0.0272,0.0282,0.0243,0.0247,0.0258,0.0226,0.0237,0.0222,0.0206,0.0207,0.0175,0.0176,0.014,0.0138,0.0117,0.0124,0.0121,0.0111,0.0105,0.0114,0.0116,0.0112,0.0108,0.0091,0.0091,0.0091,0.009,0,0.0338,0.0312,0.0318,0.029,0.0284,0.0293,0.0269,0.0272,0.0253,0.0255,0.0253,0.0223,0.0219,0.0191,0.018,0.0166,0.0181,0.0169,0.0187,0.0184,0.0205,0.0204,0.0279,0.0287,0.0206,0.0207,0.0208,0,0.0373,0.038,0.0354,0.0352,0.0342,0.034,0.0335,0.0305,0.0301,0.0283,0.0288,0.0282,0.0274,0.0269,0.0246,0.0238,0.0226,0.0253,0.0225,0.0234,0.0227,0.0227,0.0228,0.0259,0.026,0.0261,0.0262,0,0.0438,0.0425,0.042,0.0411,0.0406,0.0397,0.0386,0.0387,0.0353,0.0351,0.0346,0.0341,0.033,0.0324,0.0312,0.03,0.0275,0.0271,0.0275,0.0284,0.0294,0.029,0.0204,0.0269,0.0268,0.0268,0.0268,0.0267,0.049,0.0494,0.0477,0.0472,0.0461,0.0452,0.0454,0.0435,0.0431,0.0421,0.0403,0.0401,0.0384,0.0366,0.0355,0.0354,0.0339,0.0345,0.0347,0.0349,0.0354,0.0295,0.0351,0.0351,0.0351,0.0351,0.035,0,0.0553,0.054,0.0537,0.0523,0.052,0.0497,0.0484,0.0483,0.0482,0.0469,0.0463,0.0458,0.0452,0.0429,0.0421,0.0424,0.0413,0.0423,0.0422,0.042,0.0367,0.0364,0.0432,0.0432,0.0432,0.0432,0.0432,0.0432,0.0586,0.0593,0.0578,0.058,0.0567,0.0565,0.056,0.0551,0.0541,0.0537,0.0532,0.0518,0.0501,0.0491,0.0485,0.0478,0.0477,0.0491,0.0481,0.0431,0.0424,0.0416,0.0413,0.0491,0.0491,0.0534,0.0534,0.0535]},{"header":{"parameterUnit":"m.s-1","parameterCategory":1,"la1":30.2991,"la2":30.254,"lo1":-89.0895,"lo2":-89.0444,"dy":0.0017,"dx":0.0017,"nx":28,"ny":28,"refTime":"2024-12-07T09:00:00:Z","depth":0,"parameterNumber":3,"parameterNumberName":"V-component_of_WINDS"},"data":[0,0,0,0,0,0,0,0,0,0,0,0,0,0,0,0,0,0,0,0,0,0,0,0,0,0,0,0,0,0,0,0,0,0,0,0,0,0,0,0,0,0,0,0,0,0,0,0,0,0,0,0,0,0,0,0,0,0,5.1883,5.1884,0,5.196,5.1961,5.1962,5.1918,5.1916,5.1914,5.1912,5.1989,5.1993,5.1997,0,0,0,0,0,0,0,0,0,0,0,0,0,5.1697,5.1701,5.1883,5.1884,5.1885,5.196,5.1961,5.1962,5.1919,5.1916,5.1914,5.1911,5.1987,5.1992,5.1997,0,0,0,0,0,0,0,0,0,0,0,0,0,5.1776,5.1702,5.1883,5.1872,5.1872,5.196,5.1961,5.1962,5.1919,5.1916,5.1913,5.191,5.1986,5.1992,5.1998,5.2099,0,0,5.2016,5.2019,0,0,0,0,0,0,0,0,5.1772,5.1783,5.1873,5.1873,5.1873,5.1926,5.1923,5.2008,5.192,5.1901,5.1912,5.1908,5.197,5.1977,5.1999,5.2102,5.2106,5.2017,5.202,5.2023,5.2024,0,0,0,0,0,0,0,5.1766,5.178,5.1913,5.1874,5.1874,5.1863,5.1871,5.1939,5.1953,5.1903,5.19,5.191,5.197,5.1993,5.2,5.2107,5.2016,5.2022,5.2025,5.2028,5.2299,5.2303,0,0,0,0,0,0,5.1762,5.1775,5.1911,5.1915,5.1814,5.1869,5.1878,5.1912,5.1952,5.1955,5.1912,5.1907,5.1984,5.1993,5.2003,5.2126,5.2023,5.2028,5.2032,5.2296,5.23,5.2304,0,0,0,0,0,0,5.1758,5.1774,5.1908,5.1845,5.1861,5.1876,5.1915,5.1916,5.1939,5.1959,5.1961,5.1934,5.1982,5.1994,5.2076,5.2128,5.2031,5.2037,5.2291,5.2297,5.2302,5.2372,0,0,0,0,0,0,5.1753,5.1773,5.1812,5.1846,5.1864,5.198,5.1918,5.1919,5.195,5.1944,5.198,5.1983,5.1981,5.2067,5.2082,5.2134,5.2041,5.2287,5.2294,5.23,5.2365,5.2379,5.2391,0,0,0,0,0,5.1746,5.1828,5.1814,5.1831,5.1913,5.1983,5.1994,5.199,5.1954,5.1993,5.2007,5.1982,5.2119,5.2076,5.2092,5.2147,5.2284,5.2292,5.23,5.2359,5.2376,5.2391,0,0,0,0,0,0,5.1798,5.1832,5.1817,5.1912,5.1945,5.1976,5.2025,5.2008,5.2052,5.2044,5.2037,5.2046,5.2132,5.2147,5.2098,5.2248,5.2196,5.2208,5.2235,5.2252,5.2264,5.226,5.2046,0,0,0,0,0,5.1821,5.1875,5.1901,5.1982,5.2,5.201,5.204,5.2035,5.2068,5.2082,5.2101,5.2134,5.2185,5.2219,5.2267,5.2366,5.2375,5.2412,5.2425,5.2436,5.2447,5.2503,5.252,5.233,5.233,5.233,0,0,5.1868,5.1893,5.1927,5.1993,5.2018,5.2075,5.2022,5.2083,5.2126,5.2091,5.217,5.2185,5.2222,5.2314,5.2355,5.2329,5.2501,5.2446,5.2454,5.246,5.2513,5.2531,5.2547,5.2336,5.2335,5.2334,0,0,5.1983,5.2007,5.2078,5.2105,5.2144,5.215,5.2167,5.2201,5.2211,5.229,5.2266,5.2315,5.2403,5.2431,5.2456,5.2584,5.2563,5.2599,5.2667,5.2722,5.2737,5.2751,5.2798,5.2815,5.2609,5.2609,5.261,0,5.2036,5.2121,5.2116,5.2181,5.2212,5.2184,5.2257,5.2282,5.2335,5.2356,5.2327,5.2438,5.246,5.2559,5.2591,5.2611,5.2632,5.2596,5.2736,5.2749,5.2761,5.2807,5.2824,5.2614,5.2613,5.2613,5.2612,0,5.2186,5.2246,5.2298,5.2352,5.2388,5.2456,5.2461,5.2498,5.249,5.25,5.2582,5.2608,5.2662,5.2684,5.2676,5.2783,5.2766,5.2736,5.2684,5.2784,5.2826,5.2844,5.262,5.2618,5.2617,5.2616,0,0,5.2337,5.2388,5.2407,5.2432,5.2474,5.252,5.2587,5.264,5.2673,5.271,5.2767,5.2843,5.2816,5.2845,5.284,5.2887,5.299,5.2852,5.2853,5.2879,5.3112,5.3136,5.3156,5.2975,5.2979,5.2981,5.311,0,5.2456,5.2575,5.2573,5.2683,5.2739,5.2714,5.2773,5.2805,5.2816,5.2864,5.2875,5.293,5.289,5.2908,5.2954,5.2968,5.3037,5.2958,5.303,5.3032,5.3024,5.3178,5.3203,5.3323,5.3126,5.3129,5.3131,0,5.2612,5.2657,5.2773,5.2809,5.2832,5.2885,5.2935,5.2982,5.3018,5.3022,5.3056,5.3043,5.3112,5.3056,5.3151,5.3098,5.3127,5.3138,5.3143,5.3151,5.3089,5.3193,5.3361,5.338,5.3156,5.3154,5.3153,0,5.2713,5.2802,5.2884,5.2905,5.2948,5.2986,5.3006,5.3039,5.3072,5.3115,5.3137,5.3187,5.3215,5.3254,5.3256,5.3215,5.3353,5.3297,5.336,5.336,5.3391,5.339,5.3569,5.3406,5.3406,5.3406,5.3405,0,5.2849,5.2921,5.293,5.2981,5.3062,5.3058,5.3139,5.3154,5.3184,5.3238,5.3218,5.3268,5.3266,5.3317,5.3318,5.3398,5.341,5.3416,5.3416,5.342,5.3419,5.344,5.3433,5.341,5.3409,5.3408,5.3407,0,5.2976,5.2985,5.3073,5.3107,5.3117,5.3175,5.3204,5.3253,5.3262,5.333,5.3345,5.336,5.3419,5.3424,5.3492,5.3493,5.3591,5.358,5.3579,5.3578,5.3642,5.3637,5.3843,5.387,5.3687,5.3689,5.369,0,5.3063,5.3119,5.316,5.3195,5.3217,5.3273,5.3307,5.3306,5.3343,5.3389,5.3432,5.349,5.3536,5.3632,5.3648,5.3701,5.3693,5.3761,5.3701,5.3703,5.3697,5.3695,5.3701,5.3774,5.3776,5.3777,5.3779,0,5.3218,5.322,5.327,5.3323,5.3365,5.3407,5.3445,5.3475,5.3478,5.352,5.3582,5.3618,5.3688,5.3747,5.3798,5.3818,5.38,5.3798,5.3815,5.3821,5.3819,5.3824,5.3614,5.3793,5.3792,5.3791,5.379,5.3789,5.3329,5.3379,5.3416,5.3474,5.3503,5.354,5.3588,5.3604,5.3655,5.3714,5.3709,5.3778,5.3813,5.3881,5.3905,5.3958,5.3935,5.396,5.3967,5.3974,5.3982,5.3809,5.3967,5.3967,5.3966,5.3966,5.3966,0,5.3485,5.3508,5.3561,5.3617,5.3663,5.3642,5.3684,5.3724,5.3784,5.382,5.3866,5.3938,5.3994,5.4015,5.4071,5.4109,5.4103,5.4124,5.4123,5.4128,5.3998,5.3979,5.4129,5.4129,5.4129,5.4129,5.4129,5.4129,5.3572,5.3655,5.3662,5.3759,5.3781,5.385,5.3876,5.391,5.3938,5.402,5.4067,5.4081,5.4111,5.4169,5.422,5.4224,5.4247,5.4273,5.4274,5.4153,5.4137,5.4121,5.4103,5.4277,5.4277,5.44,5.4401,5.4402]}]]